• în România
  • Lista ţărilor
  • Pe 7 zile
  • Temperatura apei
  • Hartă satelitară
  • Meteo pe hartă
  • Widget-uri
  • user-avatar
    Intrare

    Meteo pe oră la Pionerskoe

    Astăzi, 25 Septembrie, Marţi

    Timp Temperatura Precipitaţii Vânt Presiune Umiditate
    00:00 +13°C° 0 mm 2 m/s 754 mmHg 74%
    01:00 +12°C° 0 mm 2 m/s 754 mmHg 74%
    02:00 +12°C° 0 mm 2 m/s 754 mmHg 74%
    03:00 +12°C° 0 mm 2 m/s 754 mmHg 75%
    04:00 +11°C° 0 mm 3 m/s 753 mmHg 73%
    05:00 +11°C° 0 mm 3 m/s 753 mmHg 72%
    06:00 +11°C° 0 mm 4 m/s 753 mmHg 71%
    07:00 +12°C° 0 mm 5 m/s 752 mmHg 63%
    08:00 +14°C° 0 mm 6 m/s 752 mmHg 55%
    09:00 +16°C° 0 mm 8 m/s 752 mmHg 46%
    10:00 +17°C° 0 mm 8 m/s 751 mmHg 45%
    11:00 +18°C° 0 mm 8 m/s 751 mmHg 44%
    12:00 +19°C° 0 mm 9 m/s 751 mmHg 43%
    13:00 +21°C° 0 mm 9 m/s 751 mmHg 43%
    14:00 +22°C° 0 mm 8 m/s 751 mmHg 44%
    15:00 +23°C° 0 mm 8 m/s 751 mmHg 44%
    16:00 +21°C° 0.1 mm 7 m/s 751 mmHg 52%
    17:00 +20°C° 0.1 mm 6 m/s 751 mmHg 60%
    18:00 +17°C° 0.1 mm 5 m/s 751 mmHg 67%
    19:00 +16°C° 0.3 mm 5 m/s 752 mmHg 72%
    20:00 +15°C° 0.3 mm 5 m/s 752 mmHg 76%
    21:00 +13°C° 0.3 mm 4 m/s 752 mmHg 80%
    22:00 +13°C° 0.2 mm 4 m/s 753 mmHg 78%
    23:00 +13°C° 0.2 mm 4 m/s 753 mmHg 77%

    Mâine, 26 Septembrie, Miercuri

    Timp Temperatura Precipitaţii Vânt Presiune Umiditate
    00:00 +12°C° 0.2 mm 3 m/s 754 mmHg 75%
    01:00 +12°C° 0 mm 3 m/s 754 mmHg 75%
    02:00 +11°C° 0 mm 3 m/s 755 mmHg 76%
    03:00 +12°C° 0 mm 2 m/s 755 mmHg 76%
    04:00 +11°C° 0.1 mm 3 m/s 756 mmHg 77%
    05:00 +10°C° 0.1 mm 3 m/s 756 mmHg 77%
    06:00 +10°C° 0.1 mm 3 m/s 757 mmHg 77%
    07:00 +11°C° 0 mm 3 m/s 757 mmHg 73%
    08:00 +11°C° 0 mm 3 m/s 758 mmHg 68%
    09:00 +12°C° 0 mm 4 m/s 758 mmHg 64%
    10:00 +12°C° 0 mm 4 m/s 758 mmHg 59%
    11:00 +13°C° 0 mm 4 m/s 759 mmHg 54%
    12:00 +14°C° 0 mm 4 m/s 759 mmHg 49%
    13:00 +14°C° 0 mm 4 m/s 759 mmHg 48%
    14:00 +14°C° 0 mm 3 m/s 759 mmHg 48%
    15:00 +14°C° 0 mm 3 m/s 760 mmHg 47%
    16:00 +13°C° 0 mm 3 m/s 760 mmHg 50%
    17:00 +13°C° 0 mm 3 m/s 760 mmHg 53%
    18:00 +12°C° 0 mm 3 m/s 760 mmHg 56%
    19:00 +12°C° 0 mm 2 m/s 760 mmHg 60%
    20:00 +10°C° 0 mm 2 m/s 761 mmHg 63%
    21:00 +10°C° 0 mm 2 m/s 761 mmHg 67%
    22:00 +9°C° 0 mm 2 m/s 761 mmHg 68%
    23:00 +9°C° 0 mm 2 m/s 761 mmHg 70%

    Poimâine, 27 Septembrie, Joi

    Timp Temperatura Precipitaţii Vânt Presiune Umiditate
    00:00 +8°C° 0 mm 2 m/s 761 mmHg 71%
    01:00 +8°C° 0 mm 2 m/s 761 mmHg 72%
    02:00 +8°C° 0 mm 2 m/s 761 mmHg 73%
    03:00 +7°C° 0 mm 3 m/s 761 mmHg 74%
    04:00 +7°C° 0 mm 3 m/s 761 mmHg 75%
    05:00 +7°C° 0 mm 3 m/s 761 mmHg 76%
    06:00 +5°C° 0 mm 3 m/s 761 mmHg 77%
    07:00 +7°C° 0 mm 4 m/s 760 mmHg 69%
    08:00 +9°C° 0 mm 5 m/s 760 mmHg 60%
    09:00 +10°C° 0 mm 6 m/s 760 mmHg 52%
    10:00 +11°C° 0 mm 7 m/s 759 mmHg 48%
    11:00 +12°C° 0 mm 8 m/s 759 mmHg 45%
    12:00 +12°C° 0 mm 8 m/s 758 mmHg 41%
    13:00 +12°C° 0 mm 8 m/s 758 mmHg 40%
    14:00 +12°C° 0 mm 9 m/s 757 mmHg 39%
    15:00 +12°C° 0 mm 9 m/s 757 mmHg 38%
    16:00 +11°C° 0.1 mm 8 m/s 756 mmHg 40%
    17:00 +11°C° 0.1 mm 8 m/s 755 mmHg 42%
    18:00 +10°C° 0.1 mm 7 m/s 755 mmHg 44%
    19:00 +10°C° 0.1 mm 8 m/s 754 mmHg 45%
    20:00 +10°C° 0.1 mm 8 m/s 754 mmHg 46%
    21:00 +10°C° 0.1 mm 9 m/s 754 mmHg 46%
    22:00 +10°C° 0.2 mm 9 m/s 753 mmHg 53%
    23:00 +10°C° 0.2 mm 9 m/s 753 mmHg 61%

    28 Septembrie, Vineri

    Timp Temperatura Precipitaţii Vânt Presiune Umiditate
    00:00 +9°C° 0.2 mm 8 m/s 753 mmHg 68%
    01:00 +9°C° 0 mm 8 m/s 753 mmHg 70%
    02:00 +9°C° 0 mm 7 m/s 753 mmHg 72%
    03:00 +9°C° 0 mm 6 m/s 754 mmHg 74%
    04:00 +9°C° 0 mm 6 m/s 754 mmHg 78%
    05:00 +8°C° 0 mm 5 m/s 755 mmHg 81%
    06:00 +7°C° 0 mm 4 m/s 755 mmHg 85%
    07:00 +9°C° 0 mm 5 m/s 755 mmHg 77%
    08:00 +10°C° 0 mm 5 m/s 756 mmHg 68%
    09:00 +12°C° 0 mm 5 m/s 756 mmHg 60%
    10:00 +13°C° 0 mm 5 m/s 756 mmHg 53%
    11:00 +15°C° 0 mm 6 m/s 756 mmHg 47%
    12:00 +16°C° 0 mm 6 m/s 756 mmHg 41%
    13:00 +16°C° 0 mm 6 m/s 756 mmHg 40%
    14:00 +16°C° 0 mm 6 m/s 756 mmHg 40%
    15:00 +17°C° 0 mm 6 m/s 755 mmHg 39%
    16:00 +16°C° 0 mm 5 m/s 755 mmHg 43%
    17:00 +15°C° 0 mm 4 m/s 755 mmHg 47%
    18:00 +14°C° 0 mm 4 m/s 755 mmHg 51%
    19:00 +14°C° 0 mm 4 m/s 755 mmHg 55%
    20:00 +13°C° 0 mm 5 m/s 754 mmHg 59%
    21:00 +13°C° 0 mm 6 m/s 754 mmHg 63%
    22:00 +13°C° 0 mm 6 m/s 754 mmHg 64%
    23:00 +13°C° 0 mm 6 m/s 754 mmHg 66%

    29 Septembrie, Sâmbătă

    Timp Temperatura Precipitaţii Vânt Presiune Umiditate
    00:00 +13°C° 0 mm 6 m/s 753 mmHg 68%
    01:00 +13°C° 0 mm 6 m/s 753 mmHg 69%
    02:00 +13°C° 0 mm 6 m/s 753 mmHg 70%
    03:00 +13°C° 0 mm 6 m/s 753 mmHg 71%
    04:00 +13°C° 0 mm 6 m/s 753 mmHg 73%
    05:00 +13°C° 0 mm 5 m/s 753 mmHg 74%
    06:00 +12°C° 0 mm 5 m/s 754 mmHg 75%
    07:00 +13°C° 0.1 mm 5 m/s 754 mmHg 75%
    08:00 +14°C° 0.1 mm 4 m/s 755 mmHg 75%
    09:00 +14°C° 0.1 mm 4 m/s 755 mmHg 75%
    10:00 +14°C° 0.1 mm 3 m/s 756 mmHg 75%
    11:00 +14°C° 0.1 mm 3 m/s 756 mmHg 74%
    12:00 +15°C° 0.1 mm 2 m/s 756 mmHg 74%
    13:00 +15°C° 0.1 mm 2 m/s 756 mmHg 72%
    14:00 +15°C° 0.1 mm 1 m/s 756 mmHg 70%
    15:00 +15°C° 0.1 mm 1 m/s 757 mmHg 68%
    16:00 +14°C° 0.1 mm 2 m/s 757 mmHg 67%
    17:00 +14°C° 0.1 mm 2 m/s 757 mmHg 67%
    18:00 +14°C° 0.1 mm 2 m/s 757 mmHg 66%
    19:00 +12°C° 0.2 mm 3 m/s 758 mmHg 66%
    20:00 +12°C° 0.2 mm 3 m/s 758 mmHg 65%
    21:00 +12°C° 0.2 mm 4 m/s 758 mmHg 64%
    22:00 +10°C° 0.7 mm 5 m/s 758 mmHg 66%
    23:00 +9°C° 0.7 mm 5 m/s 759 mmHg 67%

    30 Septembrie, Duminică

    Timp Temperatura Precipitaţii Vânt Presiune Umiditate
    00:00 +8°C° 0.7 mm 6 m/s 759 mmHg 68%
    01:00 +8°C° 0.8 mm 6 m/s 759 mmHg 70%
    02:00 +6°C° 0.8 mm 7 m/s 759 mmHg 72%
    03:00 +6°C° 0.8 mm 7 m/s 759 mmHg 73%
    04:00 +5°C° 0.6 mm 7 m/s 760 mmHg 74%
    05:00 +5°C° 0.6 mm 7 m/s 760 mmHg 75%
    06:00 +5°C° 0.6 mm 7 m/s 760 mmHg 76%
    07:00 +5°C° 0.3 mm 6 m/s 761 mmHg 76%
    08:00 +5°C° 0.3 mm 6 m/s 761 mmHg 76%
    09:00 +6°C° 0.3 mm 5 m/s 762 mmHg 76%
    10:00 +6°C° 0.1 mm 5 m/s 762 mmHg 73%
    11:00 +7°C° 0.1 mm 5 m/s 762 mmHg 69%
    12:00 +8°C° 0.1 mm 5 m/s 762 mmHg 66%
    13:00 +8°C° 0 mm 5 m/s 762 mmHg 62%
    14:00 +10°C° 0 mm 4 m/s 762 mmHg 58%
    15:00 +10°C° 0 mm 4 m/s 762 mmHg 55%
    16:00 +10°C° 0 mm 3 m/s 763 mmHg 57%
    17:00 +9°C° 0 mm 3 m/s 763 mmHg 59%
    18:00 +8°C° 0 mm 2 m/s 763 mmHg 61%
    19:00 +8°C° 0 mm 2 m/s 763 mmHg 62%
    20:00 +7°C° 0 mm 2 m/s 764 mmHg 63%
    21:00 +8°C° 0 mm 1 m/s 764 mmHg 63%
    22:00 +7°C° 0 mm 1 m/s 764 mmHg 64%
    23:00 +7°C° 0 mm 1 m/s 764 mmHg 64%
    Arată mai mult